EZY65JW EGCC-EKCH

Flight info

Callsign EZY65JW
Flight time 1h 23m
Altitude 37000
Route SONEX L975 DESIG L603 LAMIX UT29 LIBSO UL975 ERDOW DCT GIGUL DCT LARGA DCT SOPTO DCT DOREV DCT TESPI
Aircraft A320/M-SDE3FGHIRWY/LB1

Departure

Time 2026-05-04 16:53
Airport Manchester Airport (EGCC)

Arrival

Time 2026-05-04 18:17
Airport Copenhagen Kastrup Airport (EKCH)
Time Latitude Longitude Altitude Speed Heading
2026-05-04 16:28 53.36001 -2.27132 255 ft 0 kts 89°
2026-05-04 16:41 53.36001 -2.27149 255 ft 4 kts 89°
2026-05-04 16:42 53.36000 -2.27281 255 ft 1 kts 89°
2026-05-04 16:43 53.36000 -2.27282 255 ft 0 kts 89°
2026-05-04 16:46 53.35993 -2.27246 255 ft 3 kts 137°
2026-05-04 16:46 53.35929 -2.27237 255 ft 5 kts 173°
2026-05-04 16:47 53.35827 -2.27202 255 ft 10 kts 147°
2026-05-04 16:47 53.35738 -2.27192 255 ft 5 kts 202°
2026-05-04 16:48 53.35702 -2.27192 255 ft 0 kts 160°
2026-05-04 16:49 53.35647 -2.27123 258 ft 8 kts 140°
2026-05-04 16:49 53.35479 -2.26899 253 ft 9 kts 151°
2026-05-04 16:50 53.35396 -2.26984 251 ft 9 kts 230°
2026-05-04 16:50 53.35289 -2.27197 247 ft 12 kts 216°
2026-05-04 16:51 53.35106 -2.27266 243 ft 13 kts 191°
2026-05-04 16:51 53.35024 -2.27298 241 ft 10 kts 205°
2026-05-04 16:51 53.35005 -2.27328 240 ft 0 kts 232°
2026-05-04 16:52 53.35005 -2.27329 240 ft 1 kts 232°
2026-05-04 16:52 53.34910 -2.27527 238 ft 58 kts 231°
2026-05-04 16:53 53.33862 -2.29696 378 ft 159 kts 232°
2026-05-04 16:53 53.31692 -2.34604 2147 ft 204 kts 248°
2026-05-04 16:54 53.31375 -2.37066 2527 ft 228 kts 271°
2026-05-04 16:55 53.36092 -2.43905 5164 ft 265 kts
2026-05-04 16:55 53.39816 -2.43706 7120 ft 273 kts 351°
2026-05-04 16:56 53.43517 -2.45435 8896 ft 281 kts 351°
2026-05-04 16:56 53.48447 -2.40818 11324 ft 300 kts 68°
2026-05-04 16:57 53.48818 -2.37374 12101 ft 305 kts 94°
2026-05-04 16:57 53.48477 -2.30227 13559 ft 318 kts 80°
2026-05-04 16:58 53.50156 -2.18308 14448 ft 371 kts 82°
2026-05-04 16:58 53.50473 -2.13984 15099 ft 375 kts 84°
2026-05-04 16:59 53.51113 -2.05146 16449 ft 382 kts 83°
2026-05-04 17:00 53.52184 -1.87113 18912 ft 394 kts 99°
2026-05-04 17:00 53.52231 -1.73469 20501 ft 408 kts 65°
2026-05-04 17:01 53.54701 -1.64804 21561 ft 414 kts 66°
2026-05-04 17:01 53.57014 -1.55867 22585 ft 420 kts 68°
2026-05-04 17:02 53.59299 -1.46734 23594 ft 426 kts 68°
2026-05-04 17:02 53.61622 -1.37559 24389 ft 432 kts 68°
2026-05-04 17:03 53.62813 -1.32901 24785 ft 435 kts 68°
2026-05-04 17:03 53.64019 -1.28199 25166 ft 438 kts 68°
2026-05-04 17:03 53.66449 -1.18715 25928 ft 443 kts 68°
2026-05-04 17:04 53.68889 -1.09102 26683 ft 448 kts 68°
2026-05-04 17:04 53.71338 -0.99344 27422 ft 454 kts 68°
2026-05-04 17:05 53.73808 -0.89480 28130 ft 459 kts 68°
2026-05-04 17:05 53.76311 -0.79488 28812 ft 464 kts 68°
2026-05-04 17:06 53.78826 -0.69395 29469 ft 468 kts 69°
2026-05-04 17:06 53.80085 -0.64309 29774 ft 471 kts 69°
2026-05-04 17:07 53.82624 -0.54044 30361 ft 474 kts 69°
2026-05-04 17:07 53.83465 -0.50633 30608 ft 474 kts 69°
2026-05-04 17:07 53.85157 -0.43742 31065 ft 474 kts 69°
2026-05-04 17:07 53.86417 -0.38588 31420 ft 473 kts 69°
2026-05-04 17:08 53.87675 -0.33440 31758 ft 473 kts 69°
2026-05-04 17:08 53.90189 -0.23115 32436 ft 473 kts 69°
2026-05-04 17:08 53.91443 -0.17945 32799 ft 473 kts 69°
2026-05-04 17:09 53.92692 -0.12786 33139 ft 473 kts 69°
2026-05-04 17:09 53.93938 -0.07628 33485 ft 473 kts 69°
2026-05-04 17:09 53.95189 -0.02442 33831 ft 473 kts 69°
2026-05-04 17:10 53.97656 0.07825 34457 ft 472 kts 70°
2026-05-04 17:10 54.01367 0.23346 35316 ft 471 kts 70°
2026-05-04 17:11 54.02596 0.28527 35593 ft 471 kts 70°
2026-05-04 17:11 54.03822 0.33702 35853 ft 471 kts 70°
2026-05-04 17:11 54.06247 0.43987 36351 ft 471 kts 70°
2026-05-04 17:12 54.07467 0.49171 36599 ft 471 kts 70°
2026-05-04 17:12 54.09902 0.59555 37018 ft 471 kts 70°
2026-05-04 17:13 54.13531 0.75123 37056 ft 472 kts 70°
2026-05-04 17:14 54.18337 0.95915 37055 ft 472 kts 70°
2026-05-04 17:15 54.21929 1.11581 37053 ft 472 kts 70°
2026-05-04 17:16 54.26681 1.32481 37051 ft 472 kts 70°
2026-05-04 17:17 54.31387 1.53419 37047 ft 472 kts 70°
2026-05-04 17:18 54.36075 1.74505 37044 ft 472 kts 71°
2026-05-04 17:19 54.40711 1.95536 37048 ft 472 kts 71°
2026-05-04 17:20 54.45322 2.16707 37048 ft 472 kts 71°
2026-05-04 17:20 54.47626 2.27311 37231 ft 473 kts 71°
2026-05-04 17:20 54.48756 2.32543 37485 ft 472 kts 71°
2026-05-04 17:21 54.51034 2.43156 37944 ft 472 kts 71°
2026-05-04 17:21 54.53302 2.53771 38394 ft 472 kts 71°
2026-05-04 17:22 54.54433 2.59084 38586 ft 472 kts 71°
2026-05-04 17:22 54.55564 2.64403 38783 ft 472 kts 71°
2026-05-04 17:23 54.58941 2.80394 39052 ft 473 kts 71°
2026-05-04 17:23 54.60060 2.85729 39051 ft 473 kts 71°
2026-05-04 17:24 54.63387 3.01682 39051 ft 473 kts 71°
2026-05-04 17:25 54.67852 3.23219 39053 ft 476 kts 71°
2026-05-04 17:26 54.72278 3.44862 39057 ft 477 kts 71°
2026-05-04 17:27 54.77772 3.71955 39054 ft 478 kts 72°
2026-05-04 17:28 54.81764 3.91954 39058 ft 479 kts 72°
2026-05-04 17:29 54.90354 4.22809 39060 ft 479 kts 47°
2026-05-04 17:31 55.01649 4.44219 39064 ft 480 kts 47°
2026-05-04 17:32 55.12819 4.65622 39051 ft 474 kts 47°
2026-05-04 17:33 55.21669 4.82700 39051 ft 470 kts 47°
2026-05-04 17:34 55.29757 5.00532 39047 ft 468 kts 65°
2026-05-04 17:35 55.32218 5.16947 39038 ft 466 kts 81°
2026-05-04 17:35 55.33325 5.28196 39034 ft 467 kts 81°
2026-05-04 17:36 55.34420 5.39458 39031 ft 467 kts 82°
2026-05-04 17:36 55.35492 5.50718 39034 ft 467 kts 82°
2026-05-04 17:37 55.36546 5.61939 39049 ft 467 kts 81°
2026-05-04 17:37 55.37598 5.73221 39051 ft 467 kts 81°
2026-05-04 17:38 55.38642 5.84479 39048 ft 466 kts 81°
2026-05-04 17:38 55.39670 5.95746 39045 ft 466 kts 81°
2026-05-04 17:39 55.41206 6.12673 39043 ft 466 kts 81°
2026-05-04 17:39 55.42212 6.23972 39037 ft 467 kts 81°
2026-05-04 17:40 55.43200 6.35197 39039 ft 467 kts 81°
2026-05-04 17:40 55.44189 6.46509 39039 ft 467 kts 82°
2026-05-04 17:41 55.45167 6.57857 39032 ft 467 kts 82°
2026-05-04 17:41 55.46136 6.69194 39028 ft 468 kts 82°
2026-05-04 17:42 55.47085 6.80558 39034 ft 468 kts 82°
2026-05-04 17:42 55.48023 6.91922 39027 ft 468 kts 82°
2026-05-04 17:43 55.48952 7.03216 39029 ft 469 kts 82°
2026-05-04 17:43 55.49889 7.14608 39028 ft 469 kts 82°
2026-05-04 17:44 55.50812 7.26007 39028 ft 469 kts 82°
2026-05-04 17:44 55.51719 7.37448 39024 ft 469 kts 82°
2026-05-04 17:45 55.52606 7.48870 39023 ft 470 kts 82°
2026-05-04 17:45 55.53591 7.60212 39023 ft 470 kts 76°
2026-05-04 17:46 55.55127 7.71449 39019 ft 470 kts 76°
2026-05-04 17:46 55.56655 7.82690 39017 ft 470 kts 76°
2026-05-04 17:47 55.58169 7.93957 39017 ft 471 kts 76°
2026-05-04 17:47 55.59670 8.05237 39014 ft 471 kts 76°
2026-05-04 17:48 55.60822 8.16568 39008 ft 471 kts 83°
2026-05-04 17:48 55.61571 8.28105 39004 ft 472 kts 84°
2026-05-04 17:49 55.62270 8.39653 39001 ft 472 kts 84°
2026-05-04 17:49 55.62964 8.51210 39004 ft 472 kts 84°
2026-05-04 17:50 55.63661 8.62765 39005 ft 472 kts 84°
2026-05-04 17:50 55.64360 8.74332 39006 ft 473 kts 84°
2026-05-04 17:51 55.65051 8.85903 39009 ft 473 kts 84°
2026-05-04 17:51 55.65730 8.97497 39006 ft 473 kts 84°
2026-05-04 17:52 55.66399 9.09157 38697 ft 475 kts 84°
2026-05-04 17:52 55.66724 9.14970 38281 ft 474 kts 84°
2026-05-04 17:52 55.67043 9.20699 37706 ft 473 kts 84°
2026-05-04 17:53 55.67363 9.26488 37136 ft 472 kts 84°
2026-05-04 17:53 55.67681 9.32297 36578 ft 470 kts 84°
2026-05-04 17:53 55.67994 9.38071 36038 ft 469 kts 84°
2026-05-04 17:53 55.68303 9.43818 35508 ft 468 kts 84°
2026-05-04 17:54 55.68608 9.49554 34991 ft 467 kts 84°
2026-05-04 17:54 55.68910 9.55274 34488 ft 466 kts 84°
2026-05-04 17:54 55.69208 9.60987 34135 ft 465 kts 84°
2026-05-04 17:54 55.69504 9.66702 33667 ft 465 kts 84°
2026-05-04 17:55 55.69801 9.72405 33243 ft 465 kts 84°
2026-05-04 17:55 55.70097 9.78112 32809 ft 466 kts 84°
2026-05-04 17:55 55.70392 9.83845 32312 ft 466 kts 84°
2026-05-04 17:55 55.70681 9.89574 31796 ft 467 kts 85°
2026-05-04 17:56 55.70969 9.95335 31274 ft 471 kts 85°
2026-05-04 17:56 55.71256 10.01165 30769 ft 476 kts 85°
2026-05-04 17:56 55.71541 10.07030 30280 ft 478 kts 85°
2026-05-04 17:56 55.71821 10.12848 29751 ft 478 kts 85°
2026-05-04 17:57 55.72098 10.18714 29178 ft 475 kts 85°
2026-05-04 17:57 55.72371 10.24534 28622 ft 472 kts 85°
2026-05-04 17:57 55.72660 10.30318 28074 ft 469 kts 85°
2026-05-04 17:57 55.72972 10.36071 27537 ft 466 kts 84°
2026-05-04 17:58 55.73298 10.41781 27009 ft 464 kts 84°
2026-05-04 17:58 55.73627 10.47452 26492 ft 461 kts 84°
2026-05-04 17:58 55.73953 10.53094 26122 ft 459 kts 84°
2026-05-04 17:58 55.74271 10.58727 25842 ft 458 kts 84°
2026-05-04 17:59 55.74582 10.64348 25567 ft 457 kts 84°
2026-05-04 17:59 55.74884 10.69961 25155 ft 455 kts 84°
2026-05-04 17:59 55.75467 10.81098 24221 ft 451 kts 84°
2026-05-04 18:00 55.75754 10.86630 23749 ft 448 kts 84°
2026-05-04 18:00 55.76036 10.92151 23239 ft 446 kts 84°
2026-05-04 18:00 55.76315 10.97655 22357 ft 449 kts 84°
2026-05-04 18:00 55.76593 11.03149 21798 ft 453 kts 84°
2026-05-04 18:01 55.76875 11.08727 21209 ft 452 kts 84°
2026-05-04 18:01 55.77153 11.14277 20618 ft 449 kts 84°
2026-05-04 18:01 55.77424 11.19779 20053 ft 446 kts 85°
2026-05-04 18:02 55.77951 11.30676 18934 ft 439 kts 85°
2026-05-04 18:02 55.78210 11.36093 18369 ft 437 kts 85°
2026-05-04 18:02 55.78465 11.41451 17742 ft 434 kts 85°
2026-05-04 18:02 55.78716 11.46778 17187 ft 429 kts 85°
2026-05-04 18:03 55.78957 11.51950 17007 ft 415 kts 85°
2026-05-04 18:03 55.79189 11.56948 16632 ft 406 kts 85°
2026-05-04 18:03 55.79413 11.61832 16220 ft 387 kts 85°
2026-05-04 18:03 55.79624 11.66510 15749 ft 372 kts 85°
2026-05-04 18:04 55.79826 11.71030 15252 ft 361 kts 85°
2026-05-04 18:04 55.79958 11.74009 14919 ft 354 kts 85°
2026-05-04 18:04 55.80337 11.82531 14036 ft 339 kts 85°
2026-05-04 18:05 55.80520 11.86696 13642 ft 338 kts 85°
2026-05-04 18:05 55.80700 11.90817 13214 ft 337 kts 85°
2026-05-04 18:05 55.80882 11.94955 12556 ft 334 kts 85°
2026-05-04 18:05 55.81056 11.98992 11999 ft 328 kts 85°
2026-05-04 18:06 55.81397 12.06976 10893 ft 319 kts 85°
2026-05-04 18:06 55.81560 12.10875 10407 ft 312 kts 85°
2026-05-04 18:06 55.81714 12.14626 10161 ft 296 kts 85°
2026-05-04 18:07 55.81861 12.18235 9906 ft 292 kts 85°
2026-05-04 18:07 55.82005 12.21821 9766 ft 290 kts 85°
2026-05-04 18:07 55.82148 12.25413 9574 ft 291 kts 85°
2026-05-04 18:07 55.82292 12.29013 9154 ft 292 kts 85°
2026-05-04 18:08 55.82434 12.32557 8880 ft 288 kts 85°
2026-05-04 18:08 55.82574 12.36056 8408 ft 291 kts 85°
2026-05-04 18:08 55.82714 12.39572 8019 ft 281 kts 85°
2026-05-04 18:08 55.82839 12.43025 7442 ft 279 kts 89°
2026-05-04 18:09 55.82570 12.49872 6265 ft 276 kts 95°
2026-05-04 18:09 55.82204 12.56618 5087 ft 271 kts 95°
2026-05-04 18:10 55.82019 12.59899 4771 ft 264 kts 95°
2026-05-04 18:10 55.81838 12.63149 4525 ft 263 kts 95°
2026-05-04 18:10 55.81654 12.66362 4268 ft 261 kts 95°
2026-05-04 18:10 55.81465 12.69534 4062 ft 253 kts 95°
2026-05-04 18:11 55.81284 12.72565 4001 ft 239 kts 95°
2026-05-04 18:11 55.81036 12.75401 4001 ft 229 kts 110°
2026-05-04 18:11 55.80296 12.77894 4013 ft 228 kts 123°
2026-05-04 18:11 55.79424 12.80249 4007 ft 228 kts 125°
2026-05-04 18:12 55.78539 12.82575 3937 ft 226 kts 126°
2026-05-04 18:12 55.77647 12.84825 3676 ft 224 kts 134°
2026-05-04 18:12 55.76364 12.86245 3435 ft 216 kts 171°
2026-05-04 18:12 55.74900 12.86300 3159 ft 207 kts 204°
2026-05-04 18:13 55.73829 12.84786 2932 ft 196 kts 238°
2026-05-04 18:13 55.72969 12.82950 2813 ft 190 kts 226°
2026-05-04 18:13 55.71138 12.80128 2467 ft 165 kts 225°
2026-05-04 18:14 55.70259 12.78760 2138 ft 167 kts 225°
2026-05-04 18:14 55.69395 12.77417 1883 ft 163 kts 226°
2026-05-04 18:14 55.68560 12.76117 1658 ft 160 kts 226°
2026-05-04 18:15 55.66900 12.73532 1220 ft 156 kts 225°
2026-05-04 18:15 55.65423 12.71240 813 ft 134 kts 225°
2026-05-04 18:15 55.64730 12.70162 639 ft 131 kts 226°
2026-05-04 18:16 55.64047 12.69102 455 ft 130 kts 225°
2026-05-04 18:16 55.63368 12.68048 282 ft 130 kts 226°
2026-05-04 18:16 55.62688 12.66989 107 ft 130 kts 225°
2026-05-04 18:17 55.61614 12.65321 22 ft 57 kts 221°
2026-05-04 18:17 55.61384 12.64954 25 ft 38 kts 224°
2026-05-04 18:17 55.61230 12.64484 24 ft 20 kts 252°
2026-05-04 18:18 55.61192 12.64277 26 ft 14 kts 253°
2026-05-04 18:18 55.61219 12.64122 25 ft 15 kts 328°
2026-05-04 18:18 55.61323 12.64158 24 ft 17 kts 31°
2026-05-04 18:18 55.61423 12.64274 24 ft 18 kts 34°
2026-05-04 18:19 55.61647 12.64530 24 ft 21 kts 33°
2026-05-04 18:19 55.61778 12.64681 24 ft 24 kts 33°
2026-05-04 18:19 55.61919 12.64843 24 ft 21 kts 33°
2026-05-04 18:20 55.62014 12.64953 24 ft 14 kts 33°
2026-05-04 18:20 55.62094 12.65044 25 ft 12 kts 33°
2026-05-04 18:20 55.62113 12.65067 24 ft 0 kts 33°
2026-05-04 18:21 55.62138 12.65096 24 ft 8 kts 34°
2026-05-04 18:22 55.62203 12.65173 26 ft 13 kts 32°
2026-05-04 18:22 55.62288 12.65229 28 ft 12 kts 54°
2026-05-04 18:22 55.62355 12.65334 24 ft 18 kts 357°
2026-05-04 18:22 55.62442 12.65396 24 ft 13 kts 85°
2026-05-04 18:23 55.62443 12.65547 24 ft 12 kts 89°
2026-05-04 18:23 55.62445 12.65671 24 ft 6 kts 84°
2026-05-04 18:23 55.62475 12.65685 24 ft 5 kts 354°
2026-05-04 18:23 55.62505 12.65682 24 ft 3 kts 358°
2026-05-04 18:24 55.62519 12.65682 24 ft 1 kts 358°
2026-05-04 18:24 55.62522 12.65682 24 ft 0 kts 358°